Flag for Poland Weather past 2 weeks in Wroclaw, Poland

Now
61 °F

Fog.


Feels Like: 61 °F
Forecast: 56 / 71 °F
Wind: 2 mph from West

Location: Wroclaw Ii

Current Time: Aug 30, 2014 at 6:25:31 AM

Latest Report: Aug 30, 2014 at 6:00 AM


Visibility: N/A

Pressure: 30.04 "Hg

Humidity: 88%

Dew point: 57 °F

Location of WroclawLocation

Historic Weather in Wroclaw — Graph

°F

Wroclaw temperature yesterday

Maximum temperature yesterday: 77 °F (at 12:00 PM)
Minimum temperature yesterday: 45 °F (at 5:00 AM)
Average temperature yesterday: 63 °F

Past Weeks' High & Low Weather Summary

 TemperatureHumidityPressure
High77 °F (Aug 29, 12:00 PM)94% (Aug 16, 8:00 AM)30.09 "Hg (Aug 16, 8:00 AM)
Low45 °F (Aug 29, 5:00 AM)29% (Aug 22, 1:30 PM)29.74 "Hg (Aug 18, 2:30 PM)
Average61 °F70%29.94 "Hg
* Reported Aug 15 5:00 AM — Aug 30 5:30 AM, Wroclaw, Weather by CustomWeather, © 2014

Note: Actual official high and low records may vary slightly from our data, if they occured in-between our weather recording intervals... More about our weather records

Advertising

Wroclaw weather history for previous 24 hours

 ConditionsComfort  
Time TempWeatherWind HumidityBarometerVisibility
5:30 AM
Aug 30
61 °FFog.1 mph88%30.04 "HgN/A
5:00 AM63 °FClear.2 mph88%30.04 "Hg10 mi
4:30 AM63 °FClear.3 mph88%30.04 "Hg10 mi
4:00 AM64 °FClear.3 mph88%30.04 "Hg10 mi
3:30 AM64 °FClear.3 mph88%30.01 "Hg10 mi
3:00 AM64 °FClear.5 mph88%30.01 "Hg10 mi
2:30 AM64 °FPassing clouds.7 mph88%30.01 "HgN/A
2:00 AM64 °FClear.7 mph83%30.01 "Hg10 mi
1:30 AM64 °FPassing clouds.5 mph83%30.01 "HgN/A
1:00 AM64 °FPassing clouds.5 mph83%30.01 "HgN/A
12:30 AM66 °FPassing clouds.3 mph78%30.01 "HgN/A
12:00 AM66 °FPassing clouds.5 mph73%30.01 "HgN/A
11:30 PM
Aug 29
66 °FPassing clouds.3 mph73%30.01 "HgN/A
11:00 PM68 °FPassing clouds.7 mph69%30.01 "HgN/A
9:00 PM68 °FClear.2 mph69%29.98 "Hg10 mi
8:30 PM66 °FSunny.2 mph73%29.98 "Hg10 mi
8:00 PM68 °FSunny.2 mph73%29.98 "Hg10 mi
7:30 PM70 °FSunny.2 mph64%29.98 "Hg10 mi
7:00 PM70 °FSunny.2 mph64%29.98 "Hg10 mi
6:30 PM73 °FSunny.2 mph57%29.98 "Hg10 mi
6:00 PM73 °FSunny.2 mph50%29.98 "Hg10 mi
5:30 PM75 °FPassing clouds.3 mph47%29.98 "HgN/A
5:00 PM75 °FPassing clouds.6 mph44%29.98 "HgN/A
4:30 PM73 °FPassing clouds.7 mph47%30.01 "HgN/A
4:00 PM75 °FPassing clouds.8 mph41%30.01 "HgN/A
3:30 PM75 °FSunny.10 mph44%30.01 "Hg10 mi
3:00 PM75 °FPassing clouds.9 mph39%30.01 "HgN/A
2:30 PM75 °FPassing clouds.9 mph39%30.01 "HgN/A
2:00 PM75 °FPassing clouds.7 mph39%30.01 "HgN/A
1:30 PM75 °FPassing clouds.8 mph39%30.04 "HgN/A
1:00 PM75 °FPassing clouds.9 mph39%30.01 "HgN/A
12:30 PM77 °FPassing clouds.8 mph36%30.01 "HgN/A
12:00 PM77 °FPassing clouds.6 mph36%30.04 "HgN/A
11:30 AM75 °FPassing clouds.7 mph39%30.04 "HgN/A
11:00 AM75 °FPassing clouds.7 mph41%30.04 "HgN/A
10:30 AM73 °FSunny.5 mph44%30.04 "Hg10 mi
10:00 AM70 °FPassing clouds.5 mph53%30.04 "HgN/A
9:30 AM66 °FPassing clouds.3 mph56%30.04 "HgN/A
9:00 AM61 °FSunny.3 mph72%30.04 "Hg10 mi
8:30 AM57 °FSunny.3 mph77%30.04 "Hg10 mi
8:00 AM54 °FPassing clouds.3 mph82%30.04 "HgN/A
7:30 AM50 °FSunny.2 mph88%30.04 "Hg10 mi
7:00 AM46 °FSunny.3 mph93%30.04 "Hg10 mi
6:30 AM46 °FFog.3 mph87%30.04 "HgN/A
6:00 AM46 °FFog.2 mph87%30.07 "HgN/A
Weather by CustomWeather, © 2014

See weather overviewHow to use our weather pages